GFSSE_850_rhum_024.txt.gz
RH
88 84 84 73 66 68 66 63 63 64 65 62 51 37 30 27 26 27 27 28 27 26 27 26 25 25 26 27 28 28 30 31 37 42 44 57 58 54 56 61 60 68 64
84 86 85 77 70 65 61 63 63 62 59 40 29 26 26 26 24 20 21 18 15 13 13 14 16 19 19 20 24 32 39 43 48 56 52 58 60 56 59 66 58 63 58
85 86 87 79 69 63 63 60 54 52 37 29 27 27 26 23 17 20 15 11 12 11 11 12 13 14 14 14 13 15 32 45 55 60 62 64 63 62 69 70 60 56 62
86 88 86 78 68 66 59 48 45 37 29 28 28 26 25 16 19 20 14 12 13 14 15 15 16 16 15 15 15 15 18 37 47 59 67 67 71 77 78 78 75 66 62
85 86 83 77 70 64 48 42 33 28 27 27 24 26 20 14 20 21 18 17 17 18 18 20 22 24 23 24 21 18 18 23 42 52 66 71 73 80 76 67 62 71 72
83 84 82 77 69 52 38 29 28 27 26 22 24 23 13 15 20 21 22 26 32 35 38 37 36 36 38 41 41 36 24 26 42 56 66 74 78 71 67 62 60 64 76
86 86 80 78 50 29 28 29 28 24 21 23 24 17 21 26 32 35 36 31 35 32 31 37 46 49 50 39 35 43 44 50 60 68 69 76 66 71 70 70 68 75 75
82 80 76 40 28 29 28 27 23 18 19 22 25 37 39 40 36 32 28 30 31 28 28 30 31 33 31 30 30 31 39 62 70 70 63 55 70 75 78 73 77 78 83
78 59 28 28 27 26 22 20 17 17 22 29 44 44 47 43 36 34 34 34 34 32 30 32 33 33 31 29 30 32 30 34 51 62 65 61 61 67 70 72 67 63 59
42 27 24 18 12 9 10 14 14 18 27 41 44 43 48 43 39 40 37 39 40 40 39 40 42 43 41 40 37 34 36 36 30 29 31 38 55 53 56 58 55 53 51
25 22 18 11 9 10 11 14 21 31 43 45 42 44 48 44 47 48 40 40 41 44 46 51 54 52 49 43 42 39 37 33 36 39 37 37 40 48 50 52 51 49 48
27 31 32 32 25 26 30 31 34 33 38 36 37 41 45 48 47 44 40 40 43 47 51 55 55 55 49 45 41 42 40 37 34 31 37 44 49 52 46 40 39 39 40
35 36 30 39 43 44 39 35 36 38 45 47 43 37 40 47 49 48 39 41 46 47 48 49 50 44 40 41 44 44 42 42 43 44 36 32 43 49 56 58 58 52 43
44 43 36 42 48 54 55 49 47 47 51 51 56 46 36 42 48 45 39 42 49 52 51 46 41 43 44 44 44 48 47 44 46 53 57 57 42 41 42 55 59 57 55
46 50 43 38 51 58 63 63 61 62 61 59 61 52 44 38 45 40 40 45 53 54 47 43 46 53 54 53 51 50 44 42 48 61 67 65 62 62 50 38 48 55 55
50 56 56 43 56 63 66 67 67 67 68 69 64 56 54 52 53 47 48 55 55 46 44 47 51 54 52 47 41 38 33 28 26 26 28 36 51 58 60 59 45 43 53
52 57 62 54 66 68 67 69 69 70 70 68 72 63 59 59 60 63 66 63 59 56 53 54 54 46 43 40 38 37 32 29 27 25 23 21 20 21 22 29 37 43 56
55 59 65 64 70 71 74 76 75 74 64 65 72 66 64 64 67 70 66 60 55 56 54 46 45 45 44 42 40 40 39 37 34 30 29 32 36 34 29 25 30 44 49
55 62 69 71 73 82 71 72 82 66 59 64 69 65 66 70 68 63 58 59 58 52 52 52 53 53 52 51 49 44 27 19 17 20 35 59 67 65 62 58 49 40 40
48 67 78 80 75 87 98 91 77 71 61 58 60 62 64 63 64 59 63 56 53 59 60 61 61 59 56 48 32 16 11 10 16 36 41 42 49 55 58 58 56 53 54
76 85 90 77 93 95 84 78 66 62 65 66 56 55 55 56 58 56 54 54 62 64 65 69 57 40 24 13 11 8 8 34 29 16 40 51 27 32 41 41 42 43 40
92 90 72 78 90 76 73 67 63 58 47 44 44 47 49 52 55 57 59 64 69 70 68 42 19 13 14 20 31 33 46 40 48 50 32 45 52 40 49 48 41 39 34
54 52 50 57 61 58 51 44 41 43 43 44 49 53 56 58 61 65 70 67 52 50 40 28 18 15 22 26 44 63 74 72 79 68 45 47 69 65 55 48 50 52 49
43 42 42 44 44 45 48 49 51 53 56 56 56 61 64 68 71 65 45 42 45 46 46 26 19 23 36 64 81 96 95 98 100 84 87 87 80 82 65 51 63 68 77
45 47 48 51 52 54 55 57 59 60 63 65 65 68 70 52 57 57 55 56 59 63 39 30 34 48 58 66 71 69 67 75 81 97 92 89 82 85 88 68 83 89 87
52 52 54 57 59 61 60 62 65 67 70 73 60 49 54 54 53 59 62 57 57 65 40 33 32 36 40 48 54 59 62 70 74 87 96 97 97 96 84 86 86 97 89

GFSSE_850_rhum_027.txt.gz
RH
92 93 92 82 72 68 66 68 68 66 62 56 46 31 26 25 25 25 24 22 20 19 18 18 19 21 22 22 24 25 27 30 33 35 42 51 53 56 65 70 66 71 65
85 90 90 83 75 71 68 68 64 60 52 32 23 24 25 23 19 20 15 11 11 11 12 12 13 13 12 12 13 20 29 38 43 48 55 59 60 66 77 78 68 73 71
77 88 92 84 75 70 69 67 60 48 28 24 25 25 20 17 16 12 11 12 13 13 14 14 14 13 14 14 13 14 19 34 47 53 61 64 66 70 76 77 77 78 76
80 89 87 83 72 71 68 61 45 26 26 25 24 22 14 18 16 14 14 15 16 17 18 19 19 19 21 21 18 16 17 22 38 56 64 66 68 76 77 78 76 73 74
81 86 82 78 73 71 61 44 26 26 27 25 24 16 17 20 19 18 18 20 25 32 34 34 32 31 31 34 33 31 23 26 38 50 68 71 74 79 76 73 56 57 72
85 82 78 76 75 65 50 28 28 28 24 25 22 16 22 22 22 28 35 36 34 31 32 37 39 38 33 28 29 34 36 38 50 66 78 83 75 72 72 67 68 72 69
82 82 79 81 75 56 35 30 30 24 23 24 17 22 27 34 40 35 35 30 29 28 29 30 29 30 29 29 30 30 40 53 54 56 55 58 60 65 64 76 80 84 83
79 83 88 85 57 39 32 31 25 18 22 21 32 36 42 37 29 32 33 29 28 29 30 31 30 30 29 27 28 29 28 30 39 52 58 58 63 72 70 67 68 65 65
86 87 86 54 40 35 32 27 20 23 24 41 40 42 38 33 31 30 31 31 29 28 30 32 32 32 32 32 32 31 29 28 26 26 28 36 45 55 57 63 61 57 53
85 84 46 37 35 33 29 22 20 25 42 43 44 40 38 36 36 33 32 31 30 31 33 34 34 36 37 37 37 37 36 34 32 29 27 29 29 36 44 49 51 51 50
77 38 32 24 22 20 18 20 27 34 52 50 48 49 43 42 38 35 35 36 36 39 43 45 47 47 42 39 40 40 41 42 40 36 33 30 33 33 32 35 38 39 40
31 23 15 12 12 14 18 24 32 50 52 50 49 56 56 49 45 44 42 45 46 49 51 51 51 44 42 46 47 46 44 44 44 42 41 37 33 33 38 43 40 38 39
23 28 24 22 18 24 30 42 48 54 55 51 52 54 56 55 56 50 43 47 48 53 55 52 43 42 47 50 50 47 44 41 44 43 46 51 42 37 41 44 46 49 48
34 37 41 41 45 49 51 59 53 60 66 67 64 57 52 60 61 55 47 48 50 50 52 45 43 46 52 52 48 44 40 32 31 31 37 47 54 54 46 40 44 48 50
45 41 46 56 61 64 68 71 72 74 78 79 75 66 56 57 62 52 50 48 49 52 47 44 48 54 51 46 43 40 36 34 32 30 27 26 29 45 59 59 52 41 40
49 52 50 57 64 67 71 74 74 65 69 85 77 76 68 57 62 57 54 57 57 54 55 55 54 47 46 45 44 42 40 38 36 35 32 28 23 20 19 20 24 30 41
52 60 59 60 64 67 71 77 69 61 72 75 75 68 69 60 63 66 68 67 63 57 58 54 50 51 55 52 48 46 42 41 37 31 30 32 32 31 27 23 22 23 26
56 63 68 71 76 78 80 65 63 74 77 74 69 68 69 66 70 71 67 59 59 61 56 55 57 58 61 55 46 42 36 29 18 16 19 25 28 32 36 38 37 35 34
58 67 75 80 72 82 75 58 85 88 84 79 74 73 71 72 68 67 63 62 62 56 58 64 65 65 54 43 32 22 15 10 8 9 22 40 38 35 37 36 38 42 44
52 58 74 88 80 91 75 75 91 80 76 66 68 69 61 61 61 60 59 58 58 63 68 69 60 42 28 18 13 18 8 8 14 32 34 24 33 43 28 25 22 19 21
65 76 80 80 79 68 82 87 78 64 65 66 47 49 55 55 59 60 61 65 68 67 53 42 37 31 21 15 36 53 38 21 58 28 44 52 48 30 33 27 32 27 18
72 86 87 80 76 74 71 69 68 62 47 48 48 50 54 58 61 64 68 66 50 38 38 40 41 38 27 18 24 61 48 47 72 57 57 43 55 44 63 51 41 40 40
80 74 72 73 73 59 60 64 50 48 49 52 53 55 60 64 67 67 62 51 44 48 48 49 49 40 35 44 32 74 66 58 75 68 69 76 83 78 80 74 83 89 88
52 44 46 51 52 56 61 55 54 54 57 60 64 68 68 67 58 45 53 47 48 51 53 56 54 43 33 66 67 88 84 84 73 66 66 71 78 76 79 88 92 95 98
44 46 48 49 52 53 54 56 59 61 65 68 68 71 58 46 42 40 44 51 56 62 66 64 62 68 40 46 81 80 79 79 80 81 73 65 68 72 80 87 93 96 87
45 47 50 54 56 58 61 61 64 68 69 69 58 46 46 46 56 62 61 64 69 70 71 72 76 68 57 50 69 77 69 70 72 74 70 67 65 69 69 75 89 93 90

GFSSE_850_rhum_030.txt.gz
RH
100 90 81 73 68 65 63 61 64 66 64 56 42 30 24 23 23 21 20 19 18 16 15 16 17 17 16 16 19 26 33 37 38 44 50 59 64 66 75 76 78 98 71
99 89 86 77 72 68 65 65 66 65 51 31 25 24 23 18 18 15 11 10 11 11 12 13 13 13 13 13 13 15 25 38 46 52 58 74 72 72 79 76 74 81 77
96 96 83 79 75 72 68 68 67 51 32 26 27 23 16 16 11 10 11 12 13 14 15 15 16 17 18 16 15 15 16 28 46 58 65 69 89 78 80 82 83 81 74
94 80 90 82 78 72 70 68 54 33 28 28 24 16 16 14 13 14 15 17 18 21 23 25 27 28 28 28 27 25 19 19 32 57 74 80 85 78 75 77 65 61 73
99 98 94 78 78 74 69 56 36 30 28 26 19 18 19 17 17 19 24 32 33 32 31 32 32 28 25 25 26 30 32 31 41 68 76 85 86 82 70 65 63 66 67
99 100 80 80 77 73 61 40 33 30 27 25 18 21 20 20 25 34 34 29 28 29 31 28 25 26 24 23 22 24 30 38 59 62 73 88 95 61 59 64 69 78 79
96 100 79 83 80 67 45 36 32 27 28 20 22 23 28 37 36 35 29 29 30 28 26 24 23 25 27 27 26 24 22 23 44 49 61 78 66 68 71 63 66 67 67
98 99 84 86 76 57 43 37 30 30 27 23 27 37 41 34 36 33 30 28 29 30 29 30 30 31 32 34 34 34 32 31 44 39 40 52 40 52 57 64 66 61 55
99 97 91 84 69 55 44 35 29 31 28 36 42 44 38 36 35 34 32 30 31 31 31 33 34 35 35 36 37 37 37 37 56 51 45 46 25 30 40 49 55 54 51
88 94 92 96 91 68 39 31 29 30 48 48 51 47 42 40 37 36 35 35 36 36 37 37 39 38 37 40 42 42 43 53 54 52 50 47 34 30 28 35 40 42 42
87 90 86 93 94 87 74 29 34 44 54 57 59 54 52 85 73 63 36 36 40 43 44 44 42 38 40 50 46 45 53 54 55 52 53 43 38 39 38 34 37 40 41
89 71 88 93 63 36 60 33 52 66 85 90 88 73 92 65 64 42 39 41 44 48 48 46 43 40 48 56 56 54 54 52 52 53 55 36 38 41 41 42 43 43 45
91 90 77 30 26 31 63 73 79 90 93 82 68 79 74 68 66 80 58 65 48 49 62 53 49 44 44 48 50 48 49 49 47 45 48 32 31 38 45 45 44 47 48
74 72 26 21 23 30 69 77 78 93 91 93 86 68 70 88 64 62 72 55 55 57 51 46 54 49 52 51 48 47 51 50 48 45 45 38 29 26 32 47 50 48 49
59 65 38 32 39 48 60 64 64 78 88 85 82 78 68 76 61 61 54 56 56 55 53 60 64 59 58 59 58 54 54 56 57 51 51 50 34 32 27 22 21 27 35
62 73 52 54 60 65 67 73 74 73 76 81 77 79 72 70 62 63 60 60 61 60 60 58 58 56 64 64 60 64 65 62 61 54 48 52 46 30 31 32 29 24 22
66 74 57 59 63 69 73 67 52 50 53 59 69 76 74 72 69 69 68 67 66 59 58 58 57 67 67 65 62 58 56 55 56 62 54 55 57 54 30 28 31 34 35
66 86 59 59 66 73 80 65 75 82 57 80 79 76 82 72 71 72 70 64 59 62 60 68 74 74 65 62 58 48 46 44 42 63 61 59 61 56 57 57 26 30 34
73 81 66 68 66 84 84 64 64 74 73 84 76 77 72 70 73 68 66 62 60 66 75 70 68 62 58 58 56 41 41 40 33 47 63 71 66 61 59 59 33 18 23
87 77 70 72 76 74 65 72 81 86 81 76 71 70 75 71 65 61 61 61 62 72 67 54 53 60 56 54 54 42 47 46 45 58 63 55 60 72 69 69 65 55 56
87 96 96 73 84 77 73 77 83 73 64 68 70 55 54 58 59 62 69 67 66 64 52 48 58 57 53 61 67 43 41 42 70 66 59 60 62 60 70 65 66 65 64
96 98 96 89 88 76 73 74 76 66 72 70 56 54 58 62 63 65 66 64 59 62 71 59 63 61 52 57 72 65 39 37 37 59 59 59 58 70 63 66 66 70 73
100 100 100 98 92 67 66 64 66 70 57 56 56 61 63 65 68 57 50 51 56 46 57 72 71 69 64 59 64 69 59 46 51 50 51 52 62 59 65 62 68 70 74
92 94 90 88 75 68 63 75 75 63 64 74 72 75 75 66 54 57 39 32 39 57 72 69 65 77 69 64 60 60 68 68 62 57 54 53 53 52 54 59 63 64 68
52 60 84 78 72 49 54 62 68 74 74 75 74 72 76 77 63 61 57 48 54 76 75 84 80 81 71 68 64 62 63 59 54 54 52 47 43 44 48 53 55 59 64
67 72 57 59 54 54 59 64 72 70 72 66 64 58 50 54 60 69 82 76 86 83 86 85 83 80 81 77 69 69 65 59 57 56 49 45 43 42 49 51 52 53 55

GFSSE_850_rhum_033.txt.gz
RH
86 64 58 51 49 50 53 56 61 65 63 59 50 36 29 27 24 19 18 16 14 13 14 14 13 12 12 12 13 18 28 37 43 53 63 66 59 64 75 71 91 86 68
89 70 63 60 59 60 62 65 66 62 58 43 27 25 25 19 17 12 10 10 11 12 12 13 14 14 15 14 14 14 17 33 46 52 82 86 73 64 76 74 74 72 70
91 79 71 69 65 69 68 68 64 55 35 25 25 22 16 14 10 10 11 12 13 15 17 20 22 24 25 26 25 20 16 20 46 59 62 97 78 70 78 76 70 61 62
92 75 77 74 72 70 72 67 56 34 27 27 23 15 14 11 12 13 15 19 23 26 28 29 27 24 24 25 27 30 25 29 46 62 64 66 90 67 70 65 64 62 69
92 96 76 75 73 73 75 63 39 30 30 26 17 17 14 15 17 22 29 30 28 29 30 25 22 20 20 20 21 24 31 54 57 57 67 81 80 71 59 63 70 73 73
98 94 71 84 72 75 70 47 35 32 29 22 19 19 19 21 33 33 28 26 28 26 24 24 26 26 27 27 25 22 22 42 41 49 60 82 90 66 61 57 59 65 68
98 85 81 84 79 76 57 39 34 32 28 20 24 21 29 39 35 28 26 24 25 24 26 28 29 31 34 34 35 35 35 40 39 33 42 63 37 48 53 57 64 61 56
88 93 87 84 79 68 44 38 34 30 25 25 25 39 43 37 30 28 27 28 28 29 29 31 32 33 34 36 37 37 39 43 48 46 38 52 26 28 37 45 51 56 53
93 90 93 83 71 50 42 38 31 30 26 30 46 48 37 36 34 32 31 32 32 31 34 35 36 35 36 39 38 40 45 50 52 48 45 55 38 34 30 33 39 44 45
86 87 90 76 89 52 46 38 31 30 37 50 53 45 40 40 41 42 43 35 36 39 41 42 41 38 41 48 46 46 48 50 52 46 50 51 33 38 41 39 37 36 37
91 88 85 82 86 92 55 32 34 46 53 59 58 53 66 79 81 85 44 37 39 42 45 45 44 39 47 53 53 50 51 54 49 47 47 49 32 29 38 43 44 42 41
91 79 75 82 86 78 67 37 56 62 76 89 88 81 82 86 84 82 40 40 43 46 52 52 47 51 59 57 55 56 56 57 45 44 42 42 38 30 31 34 41 46 45
91 70 77 88 86 65 65 70 74 84 83 86 95 86 78 89 92 83 73 70 73 64 67 61 60 62 68 64 63 64 61 57 51 50 46 44 41 36 29 27 30 36 46
70 77 80 87 80 73 68 67 72 78 87 89 90 80 91 75 90 84 67 69 70 66 65 63 62 69 67 65 64 64 65 62 55 55 48 48 49 40 38 30 26 23 22
61 64 70 74 75 79 77 80 85 85 88 87 81 72 84 79 80 85 79 68 67 67 66 70 68 66 66 64 65 63 63 62 61 58 56 50 49 47 41 35 33 33 29
53 62 69 71 79 85 86 89 85 90 94 99 72 79 72 62 63 86 80 72 71 75 72 62 59 64 67 64 61 61 59 52 49 52 55 52 50 54 49 43 36 37 42
55 66 72 82 89 92 99 85 70 56 58 61 62 69 75 72 72 77 80 77 76 66 61 72 74 70 69 61 56 53 50 39 41 40 52 55 53 53 55 51 40 33 31
58 69 80 84 91 96 83 63 58 51 53 76 73 70 76 78 78 72 74 76 63 65 68 76 72 67 62 59 52 52 41 36 39 40 35 52 59 58 54 59 59 41 32
62 76 89 92 85 70 71 53 60 58 53 84 81 73 75 74 74 71 70 69 64 76 77 75 70 66 61 54 43 42 45 39 43 40 41 55 61 56 63 61 62 61 58
61 86 93 99 65 64 63 64 77 60 70 85 72 69 72 73 75 75 81 71 63 72 72 77 74 63 54 45 45 52 52 44 41 50 56 58 55 57 60 63 65 60 58
71 87 95 100 89 73 74 75 75 79 81 68 70 72 70 74 72 73 74 77 74 66 76 76 68 57 53 52 52 48 52 44 36 47 45 56 55 55 56 63 62 62 63
78 86 96 99 88 91 89 87 80 78 79 75 78 79 78 68 78 75 70 72 72 70 60 59 69 67 58 56 58 53 51 45 40 45 51 51 51 53 56 53 60 62 65
87 96 95 98 91 86 77 75 74 77 78 74 75 74 76 76 76 74 74 74 69 61 53 63 67 68 64 62 59 55 51 48 49 47 47 45 49 48 48 47 50 53 60
94 96 95 88 77 76 72 66 67 58 57 61 65 69 76 78 76 73 68 70 70 68 69 67 61 71 68 63 58 54 54 54 53 48 44 45 45 40 39 43 46 51 53
79 76 70 72 67 71 72 66 70 63 71 73 73 78 78 75 74 65 66 71 75 72 69 71 73 73 68 66 62 56 53 52 51 53 56 50 42 38 40 41 45 48 48
74 75 73 64 63 70 71 73 72 76 70 65 62 59 47 47 49 54 59 64 70 69 70 71 74 72 74 79 82 75 68 61 66 66 65 55 47 44 44 45 45 46 45

GFSSE_850_rhum_036.txt.gz
RH
75 48 46 56 78 85 62 56 61 63 65 60 44 28 24 21 17 16 12 10 9 11 11 12 12 13 14 14 13 14 24 37 47 64 82 81 74 70 70 70 78 68 64
70 50 47 53 69 60 59 64 66 67 59 35 25 23 17 16 11 9 9 11 12 13 14 17 21 24 25 24 20 16 24 44 68 79 85 85 75 66 67 73 71 65 64
60 53 51 54 60 65 68 68 65 57 32 25 24 15 14 10 10 11 13 15 17 22 26 26 24 25 25 28 29 25 24 58 66 79 92 96 72 64 63 64 62 56 57
62 59 59 62 67 73 70 68 55 32 26 25 17 13 11 11 13 15 21 25 26 26 23 19 18 18 19 20 26 45 57 56 59 70 82 89 76 59 57 58 62 66 65
82 65 67 72 75 72 74 59 34 27 26 21 14 13 13 15 19 27 26 25 25 21 20 22 24 25 26 25 22 43 41 38 49 70 69 61 59 44 58 61 60 63 67
97 70 75 81 73 72 71 44 29 28 25 16 15 16 17 24 30 25 25 24 21 22 25 28 31 33 34 34 34 33 34 36 34 56 56 53 25 49 54 58 64 61 56
93 80 85 80 68 70 52 35 31 28 23 14 18 18 28 30 25 25 24 24 24 27 30 31 33 34 36 35 35 37 42 48 47 47 46 42 34 30 34 41 51 58 55
98 86 87 82 77 56 41 38 33 31 20 20 20 31 32 28 27 27 27 26 26 28 31 34 35 35 37 37 40 43 46 46 49 51 54 51 47 34 37 35 38 42 44
98 90 92 82 72 54 41 37 34 29 22 24 36 36 37 33 32 32 29 28 29 32 34 36 36 36 41 46 46 45 50 44 49 47 49 52 47 30 34 43 44 40 39
82 81 92 82 68 46 37 33 34 25 28 44 41 37 36 38 39 35 32 32 34 37 39 40 40 38 54 54 53 50 51 47 43 45 46 44 42 39 30 32 43 48 47
85 93 89 77 57 39 34 31 32 36 47 49 43 74 83 81 81 78 35 35 38 42 43 45 45 52 57 57 58 56 55 52 48 46 45 44 43 42 33 29 31 41 47
90 67 80 89 70 45 30 34 48 54 57 64 54 88 83 84 85 68 57 44 48 49 60 60 60 62 65 60 59 59 59 57 54 51 52 51 47 46 41 35 30 29 34
91 85 87 85 74 68 47 62 76 77 86 90 87 81 81 59 76 80 70 71 71 66 68 65 63 65 68 66 64 64 63 63 57 57 55 54 52 51 48 44 38 32 29
74 80 81 77 66 64 72 70 76 85 81 69 55 63 55 78 82 69 71 70 66 67 66 67 68 68 64 63 64 65 63 62 58 54 59 55 54 50 51 50 43 36 34
73 78 57 55 70 58 69 75 79 79 65 65 70 58 82 77 81 72 70 68 68 62 67 69 68 62 66 68 65 60 59 57 47 45 48 53 50 53 55 54 53 49 42
66 72 46 36 65 75 78 74 77 76 71 84 76 80 75 67 69 81 75 70 71 69 70 67 63 70 69 64 59 52 52 51 42 38 42 42 54 58 58 58 54 53 56
58 67 70 74 82 86 75 79 71 58 51 52 55 57 73 74 68 70 70 68 68 73 68 63 65 65 59 59 57 51 47 46 36 36 41 35 48 59 60 58 60 62 61
60 68 76 86 91 86 78 69 47 43 53 49 67 62 71 72 74 75 71 70 74 65 67 66 67 64 65 60 50 38 41 41 35 42 41 38 51 57 61 59 64 62 62
62 70 80 90 85 74 69 62 50 47 50 50 59 59 74 76 74 71 71 70 63 73 76 73 71 66 55 42 38 42 44 48 44 42 43 46 56 59 56 62 61 63 62
64 74 84 94 69 74 66 59 56 61 56 60 68 70 72 70 67 69 70 66 63 72 72 70 67 63 53 54 53 53 47 52 44 43 46 57 59 57 56 54 61 60 63
68 81 80 90 78 72 71 76 67 63 65 73 67 70 66 59 58 66 76 76 76 71 69 66 62 66 66 60 58 52 58 51 48 42 47 52 55 52 53 54 53 51 54
66 84 81 87 87 79 88 86 86 77 71 67 75 58 77 63 77 74 68 70 71 69 64 56 58 65 68 65 59 62 60 58 52 49 47 46 46 46 46 48 45 47 47
74 79 77 90 94 81 90 82 78 74 75 76 71 60 66 68 76 72 71 71 70 67 61 60 63 66 66 66 68 61 60 60 58 55 54 47 45 46 44 41 40 41 46
76 78 81 86 81 80 78 74 73 75 70 66 64 70 72 72 71 71 71 68 65 67 68 69 69 67 67 69 69 67 61 59 57 56 54 54 51 51 45 42 44 44 44
81 85 85 71 76 81 71 66 68 64 64 65 69 71 77 73 61 59 58 62 68 73 73 71 69 74 74 77 74 74 62 66 62 56 64 65 56 47 52 52 49 48 48
78 74 81 80 75 71 66 66 68 66 68 70 67 66 59 50 50 51 55 58 60 62 63 68 69 68 74 70 62 84 84 86 82 78 70 71 72 66 63 58 49 55 52